Regional Weather Roundup
Issued by NWS

Home | Current Version | Previous Version | Graphics & Text | Print | Product List | Glossary On
Versions: 1 2 3 4 5 6 7 8 9 10 11 12 13 14 15 16 17 18 19 20 21 22 23 24 25 26 27 28 29 30 31 32 33 34 35 36 37 38 39 40 41 42 43 44 45 46 47 48 49 50
000
ASUS43 KFSD 250502
RWRSD

WEATHER ROUNDUP FOR SOUTH DAKOTA
NATIONAL WEATHER SERVICE SIOUX FALLS SD
1100 PM CST WED DEC 24 2014

NOTE: "FAIR" INDICATES FEW OR NO CLOUDS BELOW 12,000 FEET WITH NO
SIGNIFICANT WEATHER AND/OR OBSTRUCTIONS TO VISIBILITY.


SDZ001>005-009-010-012>017-250600-
NORTHWEST AND NORTH CENTRAL SOUTH DAKOTA

CITY           SKY/WX    TMP DP  RH WIND       PRES   REMARKS
FAITH            N/A     31  24  75 N9        29.45S WCI  23
MOBRIDGE       CLOUDY    28  25  88 SE5       29.46R WCI  23
$$

SDZ012>016-024>037-041>051-057-063-072>074-250600-
SOUTHWEST AND SOUTH CENTRAL SOUTH DAKOTA

CITY           SKY/WX    TMP DP  RH WIND       PRES   REMARKS
RAPID CTY ARPT CLOUDY    37  28  70 N10       29.40R
PIERRE         CLOUDY    26  24  92 CALM      29.47S
CUSTER         CLOUDY    34  20  56 W10       29.41F WCI  26
ELLSWORTH AFB  CLOUDY    35  28  75 E1        29.40S
PHILIP         CLOUDY    29  25  85 CALM      29.43S
PINE RIDGE     CLOUDY    30  23  75 CALM      29.45R
WINNER         FAIR      36  25  64 SW9       29.45F
$$

SDZ004>011-016>023-039-040-250600-
NORTHEAST SOUTH DAKOTA

CITY           SKY/WX    TMP DP  RH WIND       PRES   REMARKS
ABERDEEN       CLOUDY    28  25  88 S9        29.50S WCI  19
WATERTOWN      CLOUDY    25  23  92 S8        29.49F WCI  16
SISSETON         N/A     32  24  72 SE9       29.48R WCI  24
$$

SDZ017-020-022-023-036>040-048>070-250600-
SOUTHEAST SOUTH DAKOTA

CITY           SKY/WX    TMP DP  RH WIND       PRES   REMARKS
SIOUX FALLS    MOCLDY    26  24  92 S9        29.56F WCI  17
HURON          PTCLDY    25  23  92 S6        29.51R WCI  18
MITCHELL       PTCLDY    26  24  92 S9        29.52F WCI  17
YANKTON        PTCLDY    25  21  86 E8        29.57F WCI  16
$$

ABBREVIATIONS USED IN REMARKS
   TC - TEMPERATURE IN CELSIUS
  WCI - WIND CHILL INDEX
   HX - HEAT INDEX
  VSB - VISIBILITY



USA.gov is the U.S. government's official web portal to all federal, state and local government web resources and services.